Skip Page Navigation
NASA JPL Caltech
NASA Logo - Jet Propulsion Laboratory + View the NASA Portal
+ Center for Near-Earth Object Studies
JPL Home Earth Solar System Stars & Galaxies Technology
JPL Solar System Dynamics
BODIES ORBITS EPHEMERIDES TOOLS PHYSICAL DATA DISCOVERY FAQ SITE MAP
JPL Small-Body Database Browser
Search: [ help ]  
312660 (2010 KS95)
Classification: Main-belt Asteroid          SPK-ID: 2312660
Ephemeris | Orbit Diagram | Orbital Elements | Mission Design | Physical Parameters | Discovery Circumstances | Close-Approach Data ]

[ show orbit diagram ]
Orbital Elements at Epoch 2459000.5 (2020-May-31.0) TDB
Reference: JPL 15 (heliocentric ecliptic J2000)
 Element Value Uncertainty (1-sigma)   Units 
e .1243165439267414 6.3444e-08  
a 2.864928287195878 2.4604e-08 au
q 2.508770303933728 1.7963e-07 au
i 6.01980989579582 5.3931e-06 deg
node 129.008362935361 6.2853e-05 deg
peri 250.8097783244274 6.7577e-05 deg
M 331.1177883925631 2.1155e-05 deg
tp 2459142.600957699575
(2020-Oct-20.10095770)
0.00010347 TDB
period 1771.205940429948
4.85
2.2817e-05
6.247e-08
d
yr
n .2032513508353593 2.6183e-09 deg/d
Q 3.221086270458028 2.7663e-08 au
  Orbit Determination Parameters
   # obs. used (total)      309  
   data-arc span      6913 days (18.93 yr)  
   first obs. used      2001-11-17  
   last obs. used      2020-10-21  
   planetary ephem.      DE431  
   SB-pert. ephem.      SB431-N16  
   condition code      0  
   norm. resid. RMS      .50533  
   source      ORB  
   producer      Otto Matic  
   solution date      2020-Nov-11 18:46:31  

Additional Information
 Earth MOID = 1.51876 au 
 Jupiter MOID = 2.26228 au 
 T_jup = 3.281 
[ show covariance matrix ]

Ephemeris | Orbit Diagram | Orbital Elements | Mission Design | Physical Parameters | Discovery Circumstances | Close-Approach Data ]

Physical Parameter Table
Parameter Symbol Value Units Sigma Reference Notes
absolute magnitude H 15.9   n/a MPO440462  
diameter diameter 3.043 km 0.917 urn:nasa:pds:neowise_diameters_albedos::2.0[mainbelt] (http://adsabs.harvard.edu/abs/2011ApJ...741...68M)  
geometric albedo albedo 0.091   0.065 urn:nasa:pds:neowise_diameters_albedos::2.0[mainbelt] (http://adsabs.harvard.edu/abs/2011ApJ...741...68M)  

312660 (2010 KS95)          Discovered 2010-May-27 by WISE at WISE
Reference: 20120109/Numbers.arcLast Updated: 2012-01-11

[ show close-approach data ]
Alternate Designations
 2010 KS95 = 2001 XP204 
Ephemeris | Orbit Diagram | Orbital Elements | Mission Design | Physical Parameters | Discovery Circumstances | Close-Approach Data ]
ABOUT SSD CREDITS/AWARDS PRIVACY/COPYRIGHT GLOSSARY LINKS
FirstGov 2020-Nov-24 16:27 UT
(server date/time)  
NASA Home Page
Site Manager:   Ryan S. Park
Webmaster  Alan B. Chamberlin